Location: Okie-Tex Star Party
(36.8978°N, 102.9520°W)
Time: 21:11:21
(UTC-05:00)

Oscar 16 - Visible Passes

Search period start: 26 June 2016 00:00
Search period end: 06 July 2016 00:00
Orbit: 774 x 791 km, 98.6° (Epoch: 25 June)

Date Brightness Start Highest point End Pass type
(mag) Time Alt. Az. Time Alt. Az. Time Alt. Az.
26 Jun 10.5 03:25:31 10° NNE 03:30:40 78° ESE 03:31:03 73° SSE visible
26 Jun 12.7 05:07:30 10° NW 05:09:17 12° WNW 05:11:04 10° W visible
27 Jun 11.5 02:54:14 10° NNE 02:58:59 37° E 02:59:02 37° E visible
27 Jun 12.0 04:34:04 10° NNW 04:38:04 23° WNW 04:39:36 20° W visible
28 Jun 12.6 02:23:41 10° NE 02:27:01 18° E 02:27:01 18° E visible
28 Jun 11.1 04:01:48 10° N 04:06:41 46° WNW 04:07:35 42° W visible
29 Jun 10.4 03:30:01 10° NNE 03:35:10 86° ESE 03:35:34 77° S visible
29 Jun 12.8 05:12:42 10° NW 05:13:44 11° WNW 05:14:46 10° WNW visible
30 Jun 11.4 02:58:40 10° NNE 03:03:31 41° E 03:03:33 41° E visible
30 Jun 12.2 04:38:44 10° NNW 04:42:32 21° WNW 04:44:07 19° W visible
01 Jul 12.4 02:27:58 10° NE 02:31:32 20° E 02:31:32 20° E visible
01 Jul 11.2 04:06:23 10° N 04:11:11 42° WNW 04:12:06 38° W visible
02 Jul 10.4 03:34:32 10° NNE 03:39:42 86° WNW 03:40:04 77° SSW visible
03 Jul 11.2 03:03:07 10° NNE 03:08:03 46° E 03:08:03 46° E visible
03 Jul 12.3 04:43:26 10° NNW 04:47:01 19° WNW 04:48:37 17° W visible
04 Jul 12.3 02:32:18 10° NE 02:36:01 22° E 02:36:01 22° E visible
04 Jul 11.3 04:10:58 10° N 04:15:40 38° WNW 04:16:36 35° W visible
05 Jul 13.1 02:03:42 10° E 02:04:00 10° E 02:04:00 10° E visible
05 Jul 10.5 03:39:04 10° N 03:44:12 78° WNW 03:44:34 73° WSW visible
